Satellite: QSAT-EOS Catalog number: 40301 Epoch time: 15043 44884462 Element set: 999 Inclination: 097 4586 deg RA of node: 125 8815 deg Eccentricity: 0 0033487 Arg of perigee: 206 3221 deg Mean anomaly: 282 7833 deg Mean motion: 15 14420343 rev/day Decay rate: 1 5077e-04 rev/day^2 Epoch rev: 1484 Checksum: 303

Satellite: TSUBAME Catalog number: 40302 Epoch time: 15043 01714267 Element set: 999 Inclination: 097 4562 deg RA of node: 125 0498 deg Eccentricity: 0 0043904 Arg of perigee: 208 8105 deg Mean anomaly: 277 1010 deg Mean motion: 15 11459397 rev/day Decay rate: 7 885e-05 rev/day^2 Epoch rev: 1474 Checksum: 298

Satellite: FIREBIRD FU3 Catalog number: 40377 Epoch time: 15043 48018268 Element set: 999 Inclination: 099 1247 deg RA of node: 054 1100 deg Eccentricity: 0 0165742 Arg of perigee: 301 2304 deg Mean anomaly: 057 2587 deg Mean motion: 15 04640208 rev/day Decay rate: 1 9780e-04 rev/day^2 Epoch rev: 178 Checksum: 294

Satellite: FIREBIRD FU4 Catalog number: 40378 Epoch time: 15043 47994891 Element set: 999 Inclination: 099 1245 deg RA of node: 054 1103 deg Eccentricity: 0 0165781 Arg of perigee: 301 1779 deg Mean anomaly: 057 3061 deg Mean motion: 15 04670470 rev/day Decay rate: 1 9814e-04 rev/day^2 Epoch rev: 178 Checksum: 319

Satellite: GRIFEX Catalog number: 40379 Epoch time: 15043 48089946 Element set: 999 Inclination: 099 1275 deg RA of node: 054 1108 deg Eccentricity: 0 0165484 Arg of perigee: 302 1112 deg Mean anomaly: 056 3897 deg Mean motion: 15 04507235 rev/day Decay rate: 1 6262e-04 rev/day^2 Epoch rev: 178 Checksum: 311

/EX


Via the Keps mailing list courtesy of AMSAT-NA http://amsat org/mailman/listinfo/keps

Forward to a Friend
 
  • This mailing list is a public mailing list - anyone may join or leave, at any time.
  • This mailing list is announce-only.

Radio Comm Report list. Deals with all modes of communications in the 150 KHz to 1300 MHz, including solar and atmospheric conditions.

Privacy Policy:

Private List